Location: Winthrop
(48.4780°N, 120.1850°W)
Time: 23:12:39
(UTC-08:00)

SR - All Passes

Search period start: 05 February 2023 00:00
Search period end: 15 February 2023 00:00
Orbit: 581 x 869 km, 66.7° (Epoch: 05 February)

Date Brightness Start Highest point End Pass type
(mag) Time Alt. Az. Time Alt. Az. Time Alt. Az.
05 Feb - 13:14:07 10° S 13:18:31 29° ESE 13:22:39 10° NE daylight
05 Feb - 14:55:28 10° WSW 15:00:22 48° NW 15:04:54 10° NNE daylight
05 Feb - 16:41:04 10° WNW 16:43:24 13° NNW 16:45:41 10° N daylight
05 Feb - 20:09:46 10° N 20:11:45 13° NNE 20:13:41 10° NE visible
05 Feb - 21:50:35 10° NNW 21:54:48 50° NE 21:58:55 10° SE visible
05 Feb - 23:33:12 10° WNW 23:36:25 21° WSW 23:39:36 10° SSW night (unlit)
06 Feb - 12:25:31 10° SE 12:28:22 15° ESE 12:31:08 10° ENE daylight
06 Feb - 14:04:42 10° SW 14:09:49 87° NW 14:14:32 10° NE daylight
06 Feb - 15:48:52 10° W 15:52:25 20° NW 15:55:47 10° NNE daylight
06 Feb - 21:00:21 10° NNW 21:04:07 28° NE 21:07:47 10° ESE visible
06 Feb - 22:42:09 10° NW 22:46:13 43° WSW 22:50:14 10° S night (unlit)
07 Feb - 13:14:28 10° SSW 13:19:24 50° ESE 13:23:59 10° NE daylight
07 Feb - 14:57:11 10° WSW 15:01:34 30° NW 15:05:41 10° NNE daylight
07 Feb - 16:44:45 10° NNW 16:45:00 10° NNW 16:45:17 10° NNW daylight
07 Feb - 20:10:16 10° N 20:13:15 18° NNE 20:16:09 10° ENE visible
07 Feb - 21:51:33 10° NW 21:55:52 89° ENE 22:00:06 10° SE visible
07 Feb - 23:35:53 10° W 23:37:04 11° WSW 23:38:16 10° WSW night (unlit)
08 Feb - 12:24:56 10° SSE 12:29:08 26° ESE 12:33:05 10° ENE daylight
08 Feb - 14:05:59 10° SW 14:10:54 52° NW 14:15:28 10° NNE daylight
08 Feb - 15:51:22 10° WNW 15:53:52 14° NNW 15:56:19 10° N daylight
08 Feb - 19:20:30 10° N 19:22:12 12° NNE 19:23:53 10° NE visible
08 Feb - 21:01:10 10° NNW 21:05:20 45° NE 21:09:24 10° ESE visible
08 Feb - 22:43:37 10° WNW 22:47:01 23° WSW 22:50:23 10° SSW night (unlit)
09 Feb - 11:36:36 10° SE 11:39:00 13° ESE 11:41:19 10° ENE daylight
09 Feb - 13:15:17 10° SSW 13:20:23 86° ESE 13:25:05 10° NE daylight
09 Feb - 14:59:14 10° W 15:02:54 21° NW 15:06:23 10° NNE daylight
09 Feb - 20:10:57 10° NNW 20:14:36 26° NE 20:18:11 10° E visible
09 Feb - 21:52:40 10° NW 21:56:48 48° WSW 22:00:52 10° SSE visible
10 Feb - 12:25:09 10° S 12:29:59 45° ESE 12:34:28 10° NE daylight
10 Feb - 14:07:37 10° WSW 14:12:05 33° NW 14:16:16 10° NNE daylight
10 Feb - 15:54:35 10° NNW 15:55:27 10° NNW 15:56:18 10° N daylight
10 Feb - 19:20:55 10° N 19:23:42 16° NNE 19:26:27 10° ENE visible
10 Feb - 21:02:05 10° NNW 21:06:24 81° NE 21:10:38 10° SE visible
10 Feb - 22:45:51 10° W 22:47:41 13° WSW 22:49:31 10° SW night (unlit)
11 Feb - 11:35:45 10° SSE 11:39:44 23° ESE 11:43:29 10° ENE daylight
11 Feb - 13:16:30 10° SW 13:21:26 57° NW 13:26:00 10° NNE daylight
11 Feb - 15:01:39 10° WNW 15:04:20 15° NNW 15:06:56 10° N daylight
11 Feb - 18:31:15 10° N 18:32:38 11° NNE 18:34:01 10° NE visible
11 Feb - 20:11:45 10° NNW 20:15:50 41° NE 20:19:51 10° ESE visible
11 Feb - 21:54:03 10° WNW 21:57:35 26° WSW 22:01:08 10° S visible
12 Feb - 10:47:50 10° SE 10:49:37 12° ESE 10:51:21 10° E daylight
12 Feb - 12:25:53 10° SSW 12:30:56 78° ESE 12:35:35 10° NE daylight
12 Feb - 14:09:36 10° W 14:13:22 22° NW 14:16:57 10° NNE daylight
12 Feb - 19:21:33 10° NNW 19:25:05 24° NE 19:28:32 10° E visible
12 Feb - 21:03:10 10° NW 21:07:20 55° WSW 21:11:29 10° SSE visible
13 Feb - 11:35:50 10° S 11:40:33 40° ESE 11:44:56 10° NE daylight
13 Feb - 13:18:03 10° WSW 13:22:35 35° NW 13:26:49 10° NNE daylight
13 Feb - 15:04:40 10° NW 15:05:52 11° NNW 15:07:04 10° N daylight
13 Feb - 18:31:33 10° N 18:34:09 15° NNE 18:36:43 10° ENE visible
13 Feb - 20:12:37 10° NNW 20:16:55 72° NE 20:21:09 10° SE visible
13 Feb - 21:56:01 10° WNW 21:58:17 14° WSW 22:00:33 10° SW visible
14 Feb - 10:46:35 10° SSE 10:50:19 21° ESE 10:53:51 10° ENE daylight
14 Feb - 12:27:00 10° SW 12:31:57 63° NW 12:36:32 10° NNE daylight
14 Feb - 14:11:56 10° WNW 14:14:46 16° NNW 14:17:31 10° N daylight
14 Feb - 17:42:05 10° N 17:43:03 11° NNE 17:44:02 10° NE daylight
14 Feb - 19:22:18 10° NNW 19:26:19 37° NE 19:30:16 10° ESE visible
14 Feb - 21:04:27 10° NW 21:08:10 29° WSW 21:11:51 10° S visible
